Regional Weather Roundup
Issued by NWS

Home | Current Version | Previous Version | Text Only | Print | Product List | Glossary On
Versions: 1 2 3 4 5 6 7 8 9 10 11 12 13 14 15 16 17 18 19 20 21 22 23 24 25 26 27 28 29 30 31 32 33 34 35 36 37 38 39 40 41 42 43 44 45 46 47 48 49 50
000
ASUS44 KFWD 250601
RWRTX
NORTH TEXAS HOURLY WEATHER ROUNDUP
NATIONAL WEATHER SERVICE FORT WORTH TX
1200 AM CST SUN FEB 25 2018

NOTE: "FAIR" INDICATES FEW OR NO CLOUDS BELOW 12,000 FEET WITH NO
SIGNIFICANT WEATHER AND/OR OBSTRUCTIONS TO VISIBILITY.

TXZ118-119-250700-
DALLAS/FORT WORTH METROPLEX

CITY           SKY/WX    TMP DP  RH WIND       PRES   REMARKS
DFW AIRPORT    FAIR      49  43  80 N5        30.00R
6HR MIN TEMP:  48; 6HR MAX TEMP:  61;

DALLAS LOVE    MOCLDY    49  46  90 E3        30.02R
6HR MIN TEMP:  48; 6HR MAX TEMP:  61;

FTW MEACHAM    FAIR      51  44  77 N9        30.01R
6HR MIN TEMP:  48; 6HR MAX TEMP:  61;

DAL-EXECUTIVE  FAIR      50  46  86 N9        30.01R
6HR MIN TEMP:  49; 6HR MAX TEMP:  59;

FTW-ALLIANCE   FAIR      44  41  89 N3        30.02R
6HR MIN TEMP:  41; 6HR MAX TEMP:  60;

FTW-NAS-JRB    FAIR      46  43  89 NW3       30.01S
6HR MIN TEMP:  44; 6HR MAX TEMP:  62;

FTW-SPINKS     FAIR      43  41  91 CALM      30.03R
6HR MIN TEMP:  43; 6HR MAX TEMP:  61;

ARLINGTON      FAIR      45  45 100 SW3       30.01R
6HR MIN TEMP:  44; 6HR MAX TEMP:  59;

GRAND PRAIRIE  FAIR      50  45  82 CALM      30.03R
6HR MIN TEMP:  50; 6HR MAX TEMP:  61;

ADDISON        FAIR      50  45  81 CALM      30.03S
6HR MIN TEMP:  48; 6HR MAX TEMP:  59;

MESQUITE       FAIR      48  47  96 CALM      30.02R
6HR MIN TEMP:  48; 6HR MAX TEMP:  59;

LANCASTER      FAIR      47  45  95 CALM      30.02R
6HR MIN TEMP:  47; 6HR MAX TEMP:  60;

$$

TXZ091>094-102>105-117-120-121-131>134-250700-
NORTH CENTRAL TEXAS

CITY           SKY/WX    TMP DP  RH WIND       PRES   REMARKS
SHRMAN/DENISON NOT AVBL
GAINESVILLE    FAIR      44  39  85 E3        30.05R
6HR MIN TEMP:  44; 6HR MAX TEMP:  56;

BOWIE          FAIR      43  40  88 NE3       30.02S
6HR MIN TEMP:  43; 6HR MAX TEMP:  56;

BRIDGEPORT     FAIR      39  39 100 CALM      30.04R
6HR MIN TEMP:  38; 6HR MAX TEMP:  62;

DECATUR        FAIR      45  41  86 NE8       30.01R
6HR MIN TEMP:  44; 6HR MAX TEMP:  58;

DENTON         FAIR      43  42  97 CALM      30.02R
6HR MIN TEMP:  43; 6HR MAX TEMP:  59;

MCKINNEY       FAIR      46  44  93 N5        30.02R
6HR MIN TEMP:  46; 6HR MAX TEMP:  58;

BONHAM         FAIR      47  40  78 N9        30.03R
6HR MIN TEMP:  46; 6HR MAX TEMP:  56;

ROCKWALL       FAIR      50  46  86 CALM      30.02S
6HR MIN TEMP:  48; 6HR MAX TEMP:  58;

TERRELL        FAIR      49  47  93 CALM      30.03R
6HR MIN TEMP:  49; 6HR MAX TEMP:  60;

WAXAHACHIE       N/A     48  48 100 CALM      30.02R
6HR MIN TEMP:  46; 6HR MAX TEMP:  59;

CLEBURNE       FAIR      48  46  93 NW6       30.03R
GRANBURY       FAIR      43  41  92 CALM      30.03S
6HR MIN TEMP:  42; 6HR MAX TEMP:  62;

$$

TXZ083>090-098>101-113>116-127>130-139>142-154-155-250700-
WESTERN NORTH TEXAS

CITY           SKY/WX    TMP DP  RH WIND       PRES   REMARKS
WICHITA FALLS  FAIR      40  36  86 E3        30.02R
6HR MIN TEMP:  39; 6HR MAX TEMP:  62;

WF-KICKAPOO    FAIR      41  37  86 NE6       30.05S WCI  37
6HR MIN TEMP:  41; 6HR MAX TEMP:  65;

VERNON         FAIR      41  34  76 E3        30.03R
6HR MIN TEMP:  41; 6HR MAX TEMP:  69;

ABILENE        FAIR      42  28  57 CALM      30.02S
6HR MIN TEMP:  39; 6HR MAX TEMP:  65;

ABILENE-DYESS  FAIR      42  28  57 SW3       30.01F
6HR MIN TEMP:  40; 6HR MAX TEMP:  65;

BRECKENRIDGE   FAIR      41  31  68 S5        30.02S WCI  38
6HR MIN TEMP:  40; 6HR MAX TEMP:  67;

CISCO          CLOUDY    50  23  34 N5        30.03S
RANGER         FAIR      38  28  65 NW3       30.02F
6HR MIN TEMP:  38; 6HR MAX TEMP:  64;

MINERAL WELLS  FAIR      40  38  93 NW3       29.99F
6HR MIN TEMP:  40; 6HR MAX TEMP:  61;

STEPHENVILLE   FAIR      44  39  83 CALM      30.04S
6HR MIN TEMP:  44; 6HR MAX TEMP:  65;

COMANCHE       FAIR      53  38  55 N5        30.03S
6HR MIN TEMP:  49; 6HR MAX TEMP:  67;

COLEMAN        FAIR      46  33  60 CALM      30.02S
6HR MIN TEMP:  44; 6HR MAX TEMP:  67;

$$

TXZ143>147-156>162-174-175-250700-
CENTRAL TEXAS

CITY           SKY/WX    TMP DP  RH WIND       PRES   REMARKS
WACO           FAIR      50  49  96 CALM      30.01R
6HR MIN TEMP:  49; 6HR MAX TEMP:  61;

WACO-MCGREGOR  MOCLDY    53  52  96 CALM      30.01R
6HR MIN TEMP:  53; 6HR MAX TEMP:  60;

HILLSBORO      FAIR      50  49  97 CALM      30.01R
6HR MIN TEMP:  50; 6HR MAX TEMP:  62; 6HR PCP:  0.01;

CORSICANA      MOCLDY    53  52  96 CALM      30.02R
6HR MIN TEMP:  53; 6HR MAX TEMP:  58;

MEXIA          CLOUDY    55  52  89 S7        30.00R
6HR MIN TEMP:  55; 6HR MAX TEMP:  59;

HEARNE         CLOUDY    60  49  68 NE6       30.00F
6HR MIN TEMP:  59; 6HR MAX TEMP:  73;

CAMERON        FAIR      58  52  78 CALM      29.99F
6HR MIN TEMP:  58; 6HR MAX TEMP:  73;

TEMPLE         MOCLDY    56  54  93 NE5       30.01R
6HR MIN TEMP:  56; 6HR MAX TEMP:  62; 6HR PCP:  0.04;

KILLEEN        FAIR      56  53  89 CALM      29.99S
6HR MIN TEMP:  56; 6HR MAX TEMP:  64;

KILLEEN-SKYLRK MOCLDY    55  52  89 CALM      30.01R
6HR MIN TEMP:  55; 6HR MAX TEMP:  63; 6HR PCP:  0.01;

GATESVILLE     FAIR      50  48  93 CALM      30.03R
HAMILTON       FAIR      52  44  73 CALM      30.03S
6HR MIN TEMP:  48; 6HR MAX TEMP:  65;

LAMPASAS       FAIR      54  47  78 CALM      30.00S
6HR MIN TEMP:  51; 6HR MAX TEMP:  68;

$$

TXZ095>097-106>112-122>126-135>138-148>153-164>167-250700-
EAST TEXAS

CITY           SKY/WX    TMP DP  RH WIND       PRES   REMARKS
PARIS          FAIR      48  44  86 N9        30.03R
6HR MIN TEMP:  46; 6HR MAX TEMP:  56;

SULPHUR SPRNGS FAIR      50  47  90 N5        30.04R
6HR MIN TEMP:  47; 6HR MAX TEMP:  57;

MOUNT PLEASANT   N/A     50  50 100 CALM      30.04R VSB 1
6HR MIN TEMP:  49; 6HR MAX TEMP:  55;

GILMER         CLOUDY    51  51 100 CALM      30.02R FOG
6HR MIN TEMP:  51; 6HR MAX TEMP:  55;

MINEOLA        FOG       46  46 100 CALM      30.03R VSB 1/4
TYLER          MOCLDY    54  53  97 CALM      30.01R
6HR MIN TEMP:  54; 6HR MAX TEMP:  57;

LONGVIEW       NOT AVBL
MARSHALL       MOCLDY    55  52  91 CALM      30.02S
6HR MIN TEMP:  55; 6HR MAX TEMP:  56; 6HR PCP:  0.44;

ATHENS         MOCLDY    52  52 100 N3        30.00R
PALESTINE      CLOUDY    56  55  95 CALM      30.02R
JACKSONVILLE   CLOUDY    56  54  93 N3        30.02R
HENDERSON      CLOUDY    56  55  96 CALM      30.02S
6HR MIN TEMP:  55; 6HR MAX TEMP:  57;

CENTER         CLOUDY    56  53  90 N5        30.01S
6HR MIN TEMP:  55; 6HR MAX TEMP:  71; 6HR PCP:  0.04;

NACOGDOCHES    CLOUDY    59  51  75 N7        29.99F
6HR MIN TEMP:  58; 6HR MAX TEMP:  70; 6HR PCP: TRACE;

LUFKIN         CLOUDY    59  50  72 CALM      29.98S
6HR MIN TEMP:  59; 6HR MAX TEMP:  72; 6HR PCP:  0.07;

$$

SUPPLEMENTAL OBSERVATIONS (NWS FORT WORTH AREA)

CITY           SKY/WX    TMP DP  RH WIND       PRES   REMARKS
$$

SUPPLEMENTAL OBSERVATIONS (NWS NORMAN AREA)

CITY           SKY/WX    TMP DP  RH WIND       PRES   REMARKS
GOODLETT         N/A     37  33  84 E8        30.01S WCI  31
ODELL            N/A     40  36  84 E8        30.03S WCI  35
CROWELL          N/A     38  35  90 SE1       30.03S
KNOX CITY        N/A     35  28  75 S7        30.02F WCI  29
SEYMOUR



USA.gov is the U.S. government's official web portal to all federal, state and local government web resources and services.